QPF
0.01 0.02 0.01 0.00 0.00 0.00 0.02 0.06 0.18 0.22 0.10 0.07 0.04 0.00 0.01 0.09 0.08 0.13 0.07 0.02 0.02 0.01 0.00 0.00 0.00 0.00 0.02 0.07 0.07 0.08 0.04 0.08 0.06 0.07 0.02 0.03 0.01 0.00 0.00 0.00 0.01 0.02 0.08
0.01 0.00 0.00 0.00 0.00 0.00 0.04 0.17 0.10 0.09 0.09 0.04 0.00 0.00 0.01 0.03 0.08 0.16 0.07 0.03 0.01 0.00 0.00 0.01 0.00 0.00 0.00 0.00 0.04 0.10 0.07 0.07 0.06 0.02 0.02 0.00 0.03 0.01 0.00 0.01 0.02 0.02 0.08
0.00 0.00 0.00 0.00 0.01 0.02 0.03 0.07 0.02 0.02 0.01 0.00 0.00 0.00 0.00 0.00 0.00 0.00 0.00 0.00 0.00 0.00 0.03 0.09 0.10 0.02 0.00 0.00 0.00 0.00 0.01 0.04 0.07 0.02 0.03 0.02 0.01 0.01 0.00 0.01 0.02 0.05 0.04
0.00 0.00 0.00 0.00 0.00 0.01 0.03 0.00 0.00 0.00 0.00 0.00 0.00 0.00 0.00 0.00 0.00 0.00 0.00 0.00 0.00 0.00 0.00 0.02 0.03 0.01 0.00 0.00 0.00 0.00 0.00 0.01 0.07 0.10 0.13 0.09 0.02 0.05 0.02 0.06 0.07 0.05 0.01
0.00 0.00 0.00 0.00 0.00 0.00 0.00 0.00 0.00 0.00 0.00 0.00 0.00 0.00 0.00 0.00 0.00 0.00 0.00 0.00 0.00 0.00 0.00 0.00 0.00 0.00 0.00 0.00 0.00 0.00 0.00 0.00 0.00 0.01 0.01 0.07 0.06 0.16 0.13 0.05 0.12 0.10 0.04
0.00 0.00 0.00 0.00 0.00 0.00 0.00 0.00 0.00 0.00 0.00 0.00 0.00 0.00 0.00 0.00 0.00 0.00 0.00 0.00 0.00 0.00 0.00 0.00 0.00 0.00 0.00 0.00 0.00 0.00 0.00 0.00 0.00 0.00 0.01 0.02 0.01 0.04 0.10 0.09 0.06 0.02 0.03
0.00 0.00 0.00 0.00 0.00 0.00 0.00 0.00 0.00 0.00 0.00 0.00 0.00 0.00 0.00 0.00 0.00 0.00 0.00 0.00 0.00 0.00 0.00 0.00 0.00 0.00 0.00 0.00 0.00 0.00 0.00 0.01 0.01 0.04 0.05 0.03 0.02 0.04 0.04 0.07 0.08 0.03 0.03
0.01 0.00 0.01 0.01 0.00 0.00 0.00 0.00 0.00 0.00 0.00 0.00 0.00 0.00 0.00 0.00 0.00 0.00 0.00 0.00 0.00 0.00 0.00 0.00 0.00 0.00 0.00 0.01 0.00 0.01 0.04 0.02 0.02 0.01 0.01 0.02 0.02 0.01 0.01 0.08 0.08 0.03 0.02
0.14 0.01 0.00 0.00 0.00 0.00 0.00 0.00 0.00 0.00 0.00 0.00 0.00 0.00 0.00 0.00 0.00 0.00 0.00 0.00 0.00 0.00 0.00 0.00 0.00 0.00 0.00 0.00 0.00 0.00 0.01 0.02 0.03 0.04 0.03 0.02 0.01 0.01 0.01 0.05 0.13 0.08 0.03
0.03 0.01 0.00 0.00 0.00 0.00 0.00 0.00 0.00 0.01 0.02 0.00 0.00 0.00 0.00 0.00 0.00 0.00 0.00 0.00 0.00 0.00 0.00 0.00 0.00 0.00 0.00 0.00 0.00 0.00 0.00 0.00 0.00 0.02 0.04 0.05 0.01 0.00 0.00 0.03 0.09 0.08 0.07
0.00 0.00 0.00 0.00 0.00 0.00 0.01 0.13 0.26 0.26 0.16 0.01 0.00 0.00 0.00 0.00 0.00 0.00 0.00 0.00 0.00 0.00 0.00 0.00 0.00 0.00 0.00 0.00 0.00 0.00 0.00 0.00 0.00 0.00 0.00 0.00 0.00 0.00 0.01 0.01 0.08 0.14 0.17
0.04 0.00 0.00 0.00 0.00 0.00 0.02 0.14 0.11 0.20 0.18 0.01 0.00 0.00 0.00 0.00 0.00 0.00 0.00 0.00 0.00 0.00 0.00 0.00 0.00 0.00 0.00 0.00 0.00 0.00 0.00 0.00 0.00 0.00 0.00 0.00 0.00 0.00 0.00 0.00 0.02 0.07 0.14
0.10 0.11 0.01 0.00 0.00 0.01 0.01 0.00 0.00 0.01 0.02 0.00 0.00 0.00 0.00 0.00 0.00 0.00 0.00 0.00 0.00 0.00 0.00 0.00 0.00 0.00 0.00 0.00 0.00 0.00 0.00 0.00 0.00 0.00 0.00 0.00 0.00 0.00 0.00 0.00 0.00 0.00 0.00
0.16 0.19 0.06 0.00 0.00 0.02 0.03 0.01 0.00 0.00 0.00 0.00 0.00 0.00 0.00 0.00 0.02 0.01 0.00 0.00 0.00 0.00 0.00 0.00 0.00 0.00 0.00 0.00 0.00 0.00 0.00 0.00 0.00 0.00 0.00 0.00 0.00 0.00 0.00 0.00 0.00 0.00 0.00
0.07 0.14 0.13 0.04 0.01 0.01 0.01 0.00 0.00 0.00 0.00 0.00 0.00 0.00 0.00 0.02 0.11 0.10 0.01 0.00 0.00 0.00 0.00 0.00 0.00 0.00 0.00 0.00 0.00 0.00 0.00 0.00 0.00 0.00 0.00 0.00 0.00 0.00 0.00 0.00 0.00 0.00 0.00
0.14 0.10 0.16 0.10 0.06 0.05 0.01 0.00 0.00 0.00 0.00 0.00 0.00 0.00 0.00 0.05 0.13 0.12 0.03 0.00 0.00 0.00 0.00 0.00 0.00 0.00 0.00 0.00 0.00 0.00 0.00 0.00 0.00 0.00 0.00 0.00 0.00 0.00 0.00 0.00 0.00 0.00 0.00
0.23 0.25 0.16 0.08 0.07 0.02 0.00 0.00 0.00 0.01 0.01 0.00 0.00 0.00 0.01 0.04 0.10 0.05 0.03 0.00 0.00 0.00 0.00 0.00 0.00 0.00 0.00 0.00 0.00 0.00 0.00 0.00 0.00 0.00 0.00 0.00 0.00 0.00 0.00 0.00 0.00 0.00 0.00
0.15 0.28 0.18 0.26 0.17 0.01 0.00 0.00 0.00 0.05 0.04 0.09 0.09 0.03 0.03 0.06 0.05 0.03 0.00 0.00 0.00 0.00 0.00 0.00 0.00 0.00 0.00 0.00 0.00 0.00 0.00 0.00 0.00 0.00 0.00 0.00 0.00 0.00 0.00 0.00 0.00 0.00 0.00
0.06 0.18 0.14 0.10 0.03 0.08 0.15 0.22 0.24 0.25 0.26 0.14 0.08 0.10 0.10 0.03 0.01 0.01 0.00 0.00 0.00 0.00 0.00 0.00 0.00 0.00 0.00 0.00 0.00 0.00 0.00 0.00 0.00 0.00 0.00 0.00 0.00 0.00 0.00 0.00 0.00 0.00 0.00
0.09 0.03 0.00 0.03 0.11 0.18 0.26 0.42 0.37 0.24 0.14 0.06 0.03 0.01 0.00 0.00 0.00 0.00 0.00 0.00 0.00 0.00 0.00 0.00 0.00 0.00 0.00 0.00 0.00 0.00 0.00 0.00 0.00 0.00 0.00 0.00 0.00 0.00 0.00 0.00 0.00 0.00 0.00
0.01 0.02 0.02 0.03 0.08 0.04 0.10 0.13 0.11 0.12 0.07 0.06 0.03 0.00 0.00 0.00 0.00 0.00 0.00 0.00 0.00 0.00 0.00 0.00 0.00 0.00 0.00 0.00 0.00 0.00 0.00 0.00 0.00 0.00 0.00 0.00 0.00 0.00 0.00 0.00 0.00 0.00 0.00
0.05 0.06 0.06 0.08 0.10 0.14 0.13 0.08 0.06 0.06 0.05 0.05 0.02 0.00 0.00 0.00 0.00 0.00 0.00 0.00 0.00 0.00 0.00 0.00 0.00 0.00 0.00 0.00 0.00 0.00 0.00 0.00 0.00 0.00 0.00 0.00 0.00 0.00 0.00 0.00 0.00 0.00 0.00
0.07 0.04 0.04 0.06 0.10 0.14 0.09 0.02 0.02 0.02 0.02 0.03 0.02 0.00 0.00 0.00 0.00 0.00 0.00 0.00 0.00 0.00 0.00 0.00 0.00 0.00 0.00 0.00 0.00 0.00 0.00 0.00 0.00 0.00 0.00 0.00 0.00 0.00 0.00 0.00 0.00 0.00 0.00
0.01 0.00 0.01 0.02 0.05 0.06 0.02 0.00 0.00 0.03 0.04 0.02 0.00 0.00 0.00 0.00 0.00 0.00 0.00 0.00 0.00 0.00 0.00 0.00 0.00 0.00 0.00 0.00 0.00 0.00 0.00 0.00 0.00 0.00 0.00 0.00 0.00 0.00 0.00 0.00 0.00 0.00 0.00
0.00 0.00 0.00 0.00 0.02 0.02 0.00 0.00 0.01 0.00 0.00 0.00 0.00 0.00 0.00 0.00 0.00 0.00 0.00 0.00 0.00 0.00 0.00 0.00 0.00 0.00 0.00 0.00 0.00 0.00 0.00 0.00 0.00 0.00 0.00 0.00 0.00 0.00 0.00 0.00 0.00 0.00 0.00
0.00 0.00 0.00 0.00 0.00 0.00 0.00 0.01 0.00 0.00 0.00 0.00 0.00 0.00 0.00 0.00 0.00 0.00 0.00 0.00 0.00 0.00 0.00 0.00 0.00 0.00 0.00 0.00 0.00 0.00 0.00 0.00 0.00 0.00 0.00 0.00 0.00 0.00 0.00 0.00 0.00 0.00 0.00
MSLP
1009.49 1009.84 1010.28 1010.97 1011.77 1012.40 1013.14 1013.90 1014.29 1014.85 1014.91 1015.14 1015.57 1015.55 1015.41 1015.40 1015.44 1015.25 1015.38 1015.33 1015.47 1015.41 1015.63 1015.65 1015.68 1015.71 1016.11 1016.22 1016.33 1016.62 1016.79 1016.97 1017.08 1017.28 1017.05 1016.72 1016.37 1016.32 1016.34 1016.15 1016.22 1016.34 1016.62
1009.59 1010.33 1010.82 1011.32 1011.79 1012.70 1013.47 1014.20 1014.57 1014.61 1014.67 1014.82 1015.08 1015.33 1015.52 1015.48 1015.31 1015.22 1015.50 1015.32 1015.01 1015.05 1015.22 1015.22 1015.40 1015.42 1015.65 1015.90 1016.09 1016.36 1016.54 1016.46 1016.50 1016.77 1017.31 1017.35 1016.51 1016.10 1015.91 1015.94 1016.11 1016.11 1016.18
1009.76 1010.39 1010.99 1011.57 1012.18 1012.85 1013.50 1014.19 1014.40 1014.39 1014.60 1014.72 1014.88 1015.26 1015.38 1015.35 1015.55 1015.35 1015.04 1014.80 1014.72 1014.79 1014.99 1015.17 1015.27 1015.26 1015.39 1015.46 1015.58 1015.85 1016.06 1016.11 1016.23 1016.07 1016.53 1017.44 1017.25 1016.71 1015.90 1015.73 1015.81 1015.82 1016.17
1009.70 1010.32 1011.01 1011.79 1012.32 1012.92 1013.59 1014.04 1014.39 1014.62 1014.83 1015.06 1014.98 1015.20 1015.58 1015.66 1015.56 1015.40 1015.19 1015.21 1015.00 1014.98 1015.01 1014.97 1014.97 1014.99 1014.97 1015.19 1015.20 1015.27 1015.35 1015.60 1015.95 1016.19 1015.94 1015.88 1016.34 1016.81 1016.71 1016.11 1015.71 1015.65 1015.86
1009.49 1010.26 1011.06 1011.64 1012.34 1013.08 1013.68 1014.18 1014.58 1014.86 1015.22 1015.21 1015.26 1015.45 1015.55 1015.56 1015.45 1015.48 1015.49 1015.40 1015.34 1015.15 1015.27 1015.08 1014.97 1015.01 1014.78 1014.54 1014.65 1014.79 1014.95 1015.24 1015.31 1015.42 1015.73 1016.16 1016.32 1016.31 1016.72 1017.10 1016.59 1016.05 1015.77
1010.64 1011.07 1011.34 1011.78 1012.50 1013.18 1013.66 1014.14 1014.46 1014.77 1015.15 1015.40 1015.50 1015.55 1015.68 1015.84 1015.97 1015.94 1015.96 1015.99 1015.84 1015.72 1015.31 1015.08 1014.86 1014.56 1014.59 1014.49 1014.41 1014.46 1014.61 1014.77 1014.75 1014.81 1014.96 1015.21 1015.74 1016.02 1016.25 1016.84 1017.09 1016.70 1016.25
1010.69 1011.87 1011.95 1012.24 1012.64 1013.32 1014.06 1014.72 1015.03 1015.30 1015.35 1015.40 1015.60 1015.62 1015.73 1015.75 1016.24 1016.33 1016.31 1016.25 1016.14 1015.90 1015.57 1015.24 1014.97 1014.83 1014.47 1014.11 1014.10 1014.14 1014.32 1014.32 1014.45 1014.60 1014.80 1014.96 1015.23 1015.53 1015.83 1016.33 1016.98 1017.10 1016.59
1010.66 1011.94 1012.33 1012.40 1012.88 1013.44 1014.33 1014.97 1015.40 1015.45 1015.65 1015.76 1015.92 1015.95 1015.93 1016.10 1016.13 1016.29 1016.44 1016.38 1016.19 1015.91 1015.63 1015.32 1015.02 1014.87 1014.44 1014.24 1014.20 1014.16 1014.07 1014.03 1014.23 1014.49 1014.76 1015.00 1015.25 1015.33 1015.53 1016.00 1016.54 1016.94 1016.87
1012.30 1011.77 1012.26 1012.67 1013.12 1013.92 1014.51 1015.05 1015.57 1015.71 1015.66 1016.06 1016.08 1016.16 1016.19 1016.49 1016.51 1016.42 1016.41 1016.50 1016.09 1015.91 1015.72 1015.54 1015.37 1015.19 1014.97 1014.72 1014.71 1014.60 1014.67 1014.46 1014.44 1014.49 1014.61 1014.94 1015.11 1015.17 1015.30 1015.55 1015.89 1016.25 1016.99
1011.30 1011.88 1012.44 1012.88 1013.36 1013.71 1014.24 1015.01 1015.64 1015.72 1015.70 1015.64 1016.13 1016.43 1016.42 1016.61 1016.68 1016.67 1016.58 1016.59 1016.29 1016.04 1016.06 1015.91 1015.88 1015.79 1015.70 1015.58 1015.45 1015.52 1015.47 1015.10 1015.07 1015.04 1015.05 1015.18 1015.19 1015.12 1015.17 1015.27 1015.42 1015.83 1016.54
1011.60 1012.36 1012.39 1013.12 1013.28 1013.76 1014.38 1015.04 1015.37 1015.78 1016.02 1015.79 1015.78 1016.48 1016.71 1016.81 1016.95 1016.94 1016.78 1016.76 1016.61 1016.43 1016.54 1016.55 1016.52 1016.53 1016.53 1016.39 1016.27 1016.24 1016.23 1016.08 1015.92 1015.87 1015.83 1015.83 1015.60 1015.48 1015.39 1015.36 1015.52 1015.88 1016.11
1012.19 1012.23 1012.27 1013.10 1013.68 1014.51 1014.54 1014.77 1014.96 1015.45 1015.90 1015.68 1015.72 1016.21 1016.69 1016.84 1016.90 1017.06 1016.85 1016.87 1016.96 1016.95 1017.03 1017.13 1017.05 1017.10 1017.20 1017.14 1016.96 1016.84 1016.83 1016.76 1016.71 1016.80 1016.65 1016.64 1016.37 1016.12 1015.93 1015.73 1015.81 1015.94 1016.17
1011.37 1012.87 1012.84 1012.94 1013.94 1014.75 1014.57 1014.52 1014.46 1014.60 1015.27 1015.49 1015.79 1016.25 1016.63 1016.86 1017.02 1017.09 1016.89 1016.93 1017.14 1017.45 1017.66 1017.62 1017.56 1017.66 1017.64 1017.67 1017.73 1017.63 1017.46 1017.48 1017.48 1017.42 1017.35 1017.26 1016.98 1016.89 1016.75 1016.59 1016.51 1016.45 1016.44
1010.79 1012.86 1013.01 1012.69 1014.13 1014.54 1014.39 1014.26 1014.82 1015.28 1015.25 1015.21 1015.68 1016.12 1016.32 1016.50 1016.95 1017.02 1017.10 1017.25 1017.34 1017.70 1018.22 1018.14 1018.16 1018.18 1018.10 1018.17 1018.25 1018.26 1018.20 1018.16 1018.14 1018.07 1018.00 1017.91 1017.81 1017.69 1017.46 1017.18 1017.12 1017.15 1017.19
1012.62 1013.02 1012.93 1012.69 1013.59 1013.96 1014.04 1014.30 1014.53 1014.87 1015.03 1014.99 1015.34 1015.61 1016.06 1016.56 1017.33 1017.49 1017.35 1017.44 1017.61 1018.10 1018.56 1018.43 1018.64 1018.60 1018.64 1018.63 1018.58 1018.57 1018.59 1018.62 1018.60 1018.57 1018.54 1018.49 1018.42 1018.28 1018.11 1017.94 1017.92 1017.88 1018.03
1011.54 1012.44 1012.11 1012.70 1013.33 1013.13 1013.47 1013.92 1014.27 1014.50 1014.91 1015.05 1015.27 1015.53 1016.10 1016.59 1017.18 1017.48 1017.47 1017.44 1017.90 1018.41 1018.81 1018.92 1019.11 1019.21 1019.21 1019.07 1018.83 1018.70 1018.80 1019.01 1019.24 1019.36 1019.22 1019.14 1019.07 1018.91 1018.78 1018.62 1018.51 1018.52 1018.69
1011.25 1011.48 1012.21 1012.38 1012.42 1012.27 1012.76 1013.50 1014.19 1014.31 1015.01 1015.34 1015.74 1015.91 1015.99 1016.41 1017.13 1017.12 1017.33 1017.33 1017.92 1018.57 1019.11 1019.36 1019.57 1019.86 1019.70 1019.38 1019.16 1019.10 1019.18 1019.41 1019.68 1019.83 1019.80 1019.74 1019.76 1019.66 1019.53 1019.50 1019.40 1019.33 1019.28
1011.93 1011.71 1011.28 1012.59 1012.84 1012.83 1013.24 1013.48 1014.20 1014.92 1015.56 1015.78 1016.24 1016.42 1016.50 1016.62 1016.85 1017.03 1017.33 1017.56 1018.03 1018.71 1019.27 1019.67 1020.03 1020.17 1020.13 1019.82 1019.63 1019.60 1019.74 1019.96 1020.17 1020.25 1020.25 1020.21 1020.23 1020.24 1020.17 1020.19 1020.28 1020.35 1020.30
1011.00 1010.94 1011.69 1011.59 1011.67 1012.84 1013.76 1014.41 1015.53 1016.16 1016.40 1016.70 1016.99 1017.13 1017.24 1016.99 1016.86 1016.95 1017.28 1017.66 1018.15 1018.75 1019.32 1019.82 1020.32 1020.51 1020.53 1020.22 1020.15 1020.12 1020.28 1020.58 1020.79 1020.76 1020.69 1020.59 1020.60 1020.65 1020.70 1020.69 1021.01 1021.08 1021.01
1010.80 1011.23 1011.81 1012.19 1012.36 1013.36 1014.13 1015.01 1016.65 1018.01 1017.38 1017.25 1017.38 1017.39 1017.22 1017.18 1016.92 1016.89 1017.31 1017.77 1018.33 1019.14 1019.68 1020.27 1020.68 1020.87 1020.81 1020.58 1020.37 1020.48 1020.54 1020.95 1021.14 1021.25 1021.15 1021.04 1020.99 1020.86 1021.01 1021.10 1021.28 1021.50 1021.51
1011.81 1012.10 1012.87 1013.28 1013.95 1014.24 1014.10 1015.73 1016.18 1017.42 1017.44 1017.83 1017.41 1017.60 1017.57 1017.33 1017.15 1017.16 1017.58 1018.12 1018.85 1019.49 1020.16 1020.76 1021.11 1021.19 1021.17 1020.93 1020.67 1020.58 1020.57 1020.72 1021.13 1021.38 1021.49 1021.42 1021.39 1021.29 1021.33 1021.33 1021.45 1021.52 1021.38
1013.04 1013.29 1013.89 1014.73 1014.86 1015.32 1015.47 1016.11 1016.94 1017.50 1017.85 1018.02 1017.85 1017.95 1018.02 1017.96 1017.91 1017.92 1018.19 1018.64 1019.14 1019.88 1020.56 1021.17 1021.46 1021.60 1021.45 1021.35 1021.09 1020.66 1020.71 1020.85 1021.19 1021.52 1021.59 1021.63 1021.56 1021.64 1021.39 1021.32 1021.21 1021.26 1021.09
1013.96 1014.64 1014.89 1015.62 1016.24 1016.35 1016.49 1016.70 1017.48 1017.91 1017.82 1018.01 1018.56 1018.92 1018.86 1018.82 1018.80 1018.89 1019.15 1019.40 1019.74 1020.32 1021.05 1021.41 1021.83 1022.00 1021.90 1021.85 1021.43 1021.32 1021.20 1021.20 1021.30 1021.51 1021.65 1021.61 1021.65 1021.66 1021.49 1021.40 1021.25 1021.40 1021.53
1014.89 1015.50 1015.97 1016.59 1017.07 1017.37 1017.05 1017.06 1017.72 1017.80 1018.16 1018.65 1019.16 1019.45 1019.39 1019.65 1019.73 1019.96 1019.99 1020.22 1020.55 1020.96 1021.45 1021.76 1021.96 1022.08 1022.20 1022.20 1022.10 1021.98 1021.83 1021.66 1021.73 1021.74 1021.76 1021.79 1021.84 1021.86 1021.81 1021.65 1021.92 1021.84 1021.82
1015.50 1015.92 1016.58 1016.83 1017.20 1017.29 1017.48 1017.41 1017.64 1017.98 1018.58 1019.14 1019.75 1019.98 1020.20 1020.33 1020.74 1021.04 1021.11 1021.22 1021.50 1021.49 1021.73 1021.85 1021.95 1022.23 1022.49 1022.61 1022.58 1022.51 1022.37 1022.10 1022.03 1021.96 1022.03 1022.18 1022.38 1022.39 1022.28 1022.16 1022.21 1022.30 1022.20
1015.77 1016.21 1016.72 1017.10 1017.45 1017.57 1017.44 1017.65 1017.84 1018.38 1019.05 1019.63 1019.99 1020.33 1020.62 1020.98 1021.38 1021.55 1021.79 1021.81 1022.01 1022.12 1022.04 1021.87 1022.06 1022.43 1022.45 1022.58 1022.50 1022.46 1022.48 1022.28 1022.14 1022.33 1022.58 1022.73 1022.78 1022.81 1022.74 1022.62 1022.69 1022.69 1022.70
Thickness
5829 5828 5824 5818 5807 5799 5788 5779 5771 5762 5759 5750 5741 5739 5742 5746 5747 5749 5747 5749 5749 5747 5745 5743 5742 5740 5737 5737 5735 5733 5731 5729 5729 5726 5727 5732 5737 5739 5740 5741 5744 5747 5745
5827 5822 5817 5813 5807 5795 5785 5776 5768 5764 5759 5752 5743 5738 5738 5742 5746 5747 5744 5745 5749 5748 5745 5744 5741 5741 5737 5736 5735 5732 5728 5729 5729 5724 5718 5714 5725 5735 5738 5740 5740 5744 5744
5822 5817 5812 5808 5801 5791 5782 5775 5770 5766 5759 5755 5749 5743 5742 5744 5744 5746 5748 5749 5749 5747 5744 5742 5741 5740 5738 5736 5735 5731 5728 5724 5726 5729 5721 5707 5707 5718 5732 5735 5738 5741 5740
5826 5819 5811 5802 5795 5789 5781 5775 5770 5765 5759 5755 5750 5746 5739 5739 5743 5746 5747 5746 5745 5743 5742 5743 5742 5741 5739 5736 5735 5733 5730 5726 5721 5723 5727 5727 5722 5712 5712 5726 5733 5737 5737
5827 5816 5807 5801 5794 5786 5778 5772 5767 5761 5756 5754 5753 5748 5746 5746 5747 5746 5743 5743 5744 5743 5739 5740 5739 5738 5739 5739 5737 5734 5730 5725 5724 5724 5721 5720 5719 5720 5714 5708 5717 5727 5733
5817 5809 5806 5799 5790 5784 5776 5770 5766 5762 5756 5751 5749 5747 5745 5742 5740 5740 5739 5736 5737 5737 5737 5737 5738 5740 5738 5737 5735 5734 5731 5727 5727 5727 5726 5722 5717 5716 5715 5708 5708 5714 5723
5809 5799 5795 5790 5786 5779 5772 5764 5758 5753 5753 5751 5747 5745 5743 5743 5737 5736 5735 5733 5732 5733 5735 5737 5738 5737 5738 5739 5736 5733 5730 5730 5727 5725 5723 5722 5720 5720 5717 5712 5706 5707 5717
5805 5795 5792 5790 5784 5777 5769 5760 5751 5748 5746 5744 5743 5742 5741 5739 5739 5736 5732 5731 5732 5734 5735 5736 5737 5735 5736 5736 5735 5733 5732 5731 5728 5725 5723 5720 5719 5719 5719 5714 5708 5706 5708
5779 5793 5791 5787 5781 5771 5762 5754 5746 5744 5743 5739 5739 5739 5738 5735 5735 5736 5733 5730 5734 5735 5734 5734 5734 5732 5731 5732 5730 5729 5726 5727 5726 5725 5724 5721 5721 5721 5720 5719 5715 5709 5699
5797 5788 5789 5783 5776 5770 5761 5749 5741 5738 5739 5741 5736 5734 5735 5733 5732 5732 5732 5729 5731 5733 5731 5731 5729 5727 5726 5726 5725 5722 5719 5721 5721 5721 5721 5719 5720 5721 5722 5721 5718 5711 5703
5792 5784 5787 5780 5777 5769 5755 5742 5733 5727 5723 5736 5739 5731 5730 5729 5727 5728 5729 5727 5727 5729 5727 5725 5724 5721 5719 5718 5718 5717 5715 5715 5715 5715 5715 5714 5717 5719 5719 5719 5717 5712 5708
5784 5784 5785 5778 5772 5759 5753 5743 5732 5723 5725 5732 5738 5732 5728 5728 5727 5725 5726 5726 5723 5723 5721 5719 5719 5716 5714 5713 5713 5713 5712 5711 5711 5709 5710 5709 5711 5712 5713 5714 5712 5710 5707
5783 5770 5772 5777 5766 5756 5756 5748 5739 5740 5739 5738 5736 5732 5728 5727 5726 5723 5723 5724 5720 5717 5715 5714 5713 5711 5710 5709 5708 5708 5709 5708 5707 5707 5706 5705 5707 5707 5707 5707 5706 5704 5703
5782 5763 5764 5774 5761 5758 5757 5753 5742 5738 5740 5741 5737 5733 5729 5728 5726 5722 5721 5719 5718 5714 5709 5709 5708 5705 5706 5705 5704 5704 5704 5703 5702 5702 5701 5701 5700 5699 5699 5700 5699 5697 5695
5762 5759 5760 5769 5762 5760 5760 5755 5747 5743 5744 5743 5739 5737 5732 5727 5721 5717 5719 5717 5715 5709 5704 5705 5702 5701 5700 5700 5701 5701 5700 5698 5698 5697 5696 5695 5694 5693 5692 5691 5690 5688 5683
5763 5757 5766 5765 5761 5764 5763 5757 5752 5748 5742 5740 5737 5738 5733 5726 5720 5714 5716 5714 5709 5704 5700 5699 5696 5694 5694 5694 5697 5697 5695 5692 5688 5685 5685 5684 5682 5681 5681 5680 5680 5678 5673
5769 5757 5762 5761 5765 5771 5769 5761 5752 5750 5739 5736 5732 5732 5732 5727 5718 5717 5713 5712 5705 5699 5696 5694 5690 5686 5685 5687 5691 5690 5687 5684 5680 5676 5675 5674 5671 5669 5667 5665 5664 5662 5661
5758 5760 5768 5755 5753 5761 5758 5757 5751 5742 5732 5728 5723 5725 5725 5722 5718 5716 5711 5708 5703 5695 5691 5688 5683 5681 5679 5681 5684 5682 5679 5675 5672 5668 5665 5664 5661 5659 5656 5653 5649 5646 5644
5766 5769 5764 5765 5767 5755 5746 5741 5726 5721 5718 5718 5717 5716 5714 5715 5717 5714 5709 5705 5700 5692 5688 5683 5678 5675 5673 5674 5674 5673 5670 5666 5662 5659 5656 5654 5652 5649 5646 5642 5637 5633 5629
5772 5768 5761 5758 5756 5746 5738 5722 5708 5701 5711 5713 5712 5712 5714 5710 5711 5710 5706 5702 5695 5687 5682 5677 5672 5669 5668 5667 5667 5665 5662 5658 5652 5649 5646 5644 5641 5640 5636 5631 5626 5621 5617
5759 5758 5749 5742 5737 5735 5736 5717 5715 5707 5709 5707 5710 5707 5707 5708 5707 5706 5702 5695 5687 5681 5674 5668 5664 5662 5661 5662 5661 5660 5656 5653 5647 5641 5637 5634 5631 5629 5624 5619 5614 5610 5607
5744 5744 5736 5729 5729 5725 5722 5716 5709 5707 5702 5702 5704 5702 5701 5700 5699 5697 5693 5688 5681 5675 5668 5660 5657 5654 5653 5652 5652 5654 5651 5645 5638 5632 5627 5624 5622 5617 5615 5612 5608 5604 5602
5732 5726 5725 5719 5712 5712 5712 5708 5701 5696 5698 5698 5693 5690 5689 5688 5687 5685 5681 5678 5674 5667 5659 5654 5649 5644 5643 5641 5641 5639 5637 5634 5628 5622 5618 5615 5611 5607 5603 5600 5598 5595 5589
5717 5714 5710 5703 5700 5698 5702 5701 5694 5693 5692 5689 5683 5680 5680 5676 5674 5671 5669 5667 5663 5657 5651 5645 5641 5638 5634 5631 5628 5626 5623 5620 5616 5612 5608 5604 5600 5594 5591 5589 5583 5579 5576
5710 5707 5700 5698 5695 5694 5693 5693 5690 5687 5683 5678 5673 5669 5666 5664 5659 5654 5653 5651 5647 5647 5643 5639 5635 5630 5625 5620 5616 5614 5611 5609 5604 5600 5595 5590 5583 5580 5577 5573 5569 5565 5563
5700 5697 5693 5690 5687 5686 5687 5683 5681 5676 5671 5667 5663 5658 5653 5650 5647 5645 5640 5639 5636 5635 5632 5629 5625 5619 5616 5611 5608 5604 5599 5596 5592 5587 5580 5573 5569 5567 5563 5561 5556 5551 5547